sat.trackr.live / text

‹ back to catalog

APRIZESAT 3

NORAD 35686 · 2009-041F

PAYLOAD ACTIVE UNKNOWN

§ Identity

Operator
Country
US
Launch date
2009-07-29
Launch site
TYMSC
Launch vehicle
Mass (kg)
RCS (m²)
0.11

Purposes: tech_demo

External: N2YO · Heavens-Above · Gunter

§ Orbital elements

Epoch: 2026-09-08T21:18:43.954272Z

Period
96.23 min
Inclination
98.2172°
Eccentricity
0.0061963
Mean motion
14.96439765 rev/d
Perigee alt
534.8 km
Apogee alt
621.0 km
Semi-major
6,956.0 km
B*
7.4084e-5
RAAN
49.1928°
Arg perigee
149.9102°
Mean anomaly
210.5702°
Rev number
92,889

§ Raw data

APRIZESAT 31 35686U 09041F   26251.88800873  .00000804  00000+0  74084-4 0  99982 35686  98.2172  49.1928 0061963 149.9102 210.5702 14.96439765928890

JSON: /api/v1/satellites/35686 · /tle

For live sub-satellite position, see the globe view (requires WebGL).

§ Visibility from observer

Set your observer location to see the next 7 days of passes ≥ 10°. The values pass through the URL so the page stays shareable.

No JS? Fill the form by hand. The geolocation button needs JavaScript.